星链-33685 (STARLINK-33685)

导读

STARLINK-33685是美国SpaceX星链星座中的卫星,于2025年4月6日发射升空,属于星链低轨互联网星座项目的组成部分。该卫星延续星链设计,部署在近地轨道,旨在为全球用户提供高速低延迟的宽带互联网服务,进一步扩充星链星座的在轨服务规模与覆盖范围。

Basic Information
目录编号:
63465
目录名称:
STARLINK-33685
国际标识:
2025-070F
轨道中心:
EARTH
卫星名称:
星链-33685
卫星全名:
星链-33685 (STARLINK-33685)
卫星状态:
在轨 (已飞行516 天)
发射日期:
2025-04-06 UTC
国别 :
美国 (US)
星等 :
--
Orbit Information
数据来源 国际轨道数据 AOE轨道数据
星历时间 2026-09-03T22:22:22+0800
14小时前
查看轨道信息
2026-08-29T08:00:00+0800
6天前
查看轨道信息
半长轴 6861.178km 6861.169km
偏心率 0.0001632 0.0002715
轨道倾角 43.002° 42.999°
近地点辐角 272.377° 259.750°
升交点赤经 335.213° 6.834°
平近点角 87.689° 234.442°
近地点 481.921km 481.169km
远地点 484.161km 484.895km
周期 94.267分钟 94.266分钟
每日圈数 15.275828 15.275858
Detailed Information
固有亮度:
5
最大亮度:
2.5
卫星平台:
Starlink V1.0
覆盖范围:
全球
运营商:
太空探索技术公司
运营商所在国:
美国
制造商(研发单位):
太空探索技术公司
制造商所在国:
美国
使用方式:
暂无
Satellite Introduction
Starlink 计划是 SpaceX 推出的全球卫星互联网项目,通过发射低轨道卫星,为全球尤其是偏远地区提供高速、低延迟的互联网服务。自 2019 年起,Starlink 已部署数千颗卫星,旨在缩小全球数字鸿沟,推动互联网普及。该项目还为军事、航空等行业提供通信支持,带来广泛经济效益。
2D Orbit Map
3D Orbit Map
Orbit Altitude Analysis Chart
Orbit Inclination Analysis Chart
Orbit Comprehensive Analysis Chart
View Comprehensive Chart
Conjunction Data List
Event ID Objects TCA Miss Dist (km) Collision Risk Probability Collision Risk Index (CRI) Action
CDM_260903-020605-934006-346522
2026-09-03T
02:06:45+0000
0.877 km
远距离
1.99743E-5 中风险 0.61
CDM_260903-052805-993006-346522
2026-09-03T
05:28:10+0000
1.080 km
极远距离
1.121306E-5 中风险 0.56
CDM_260905-022205-717506-346521
OBJECT K (57175)
2026-09-05T
02:22:52+0000
1.132 km
极远距离
1.05791E-5 中风险 0.55
CDM_260903-102105-841706-346521
2026-09-03T
10:21:52+0000
1.218 km
极远距离
1.043563E-5 中风险 0.55
CDM_260903-123105-993006-346522
2026-09-03T
12:31:51+0000
1.115 km
极远距离
1.004187E-5 中风险 0.55
CDM_260905-031205-862206-346521
2026-09-05T
03:12:13+0000
1.308 km
极远距离
8.312833E-6 低风险 0.53
CDM_260905-033105-638106-346521
2026-09-05T
03:31:52+0000
1.212 km
极远距离
6.84303E-6 低风险 0.52
CDM_260904-190906-346506-648721
2026-09-04T
19:09:46+0000
1.416 km
极远距离
5.055288E-6 低风险 0.49
CDM_260903-113506-346506-791622
2026-09-03T
11:35:57+0000
1.040 km
极远距离
4.9542E-6 低风险 0.49
CDM_260903-104806-346506-791622
2026-09-03T
10:48:53+0000
1.071 km
极远距离
4.483068E-6 低风险 0.48